Simultaneous Nadir Overpasses (SNOs) Predictions

Prediction of SNOs between GOES-15 and NOAA-20 Satellite Orbit:

Table of predicted SNOs for the next 14.0 days since TLE Epoch: 5/24/2019
Index Date Time (GOES-15) GOES-15 Lat,Lon NOAA-20 Lat,Lon Distance(km) Time Diff (sec)
1 05/24/2019 22:14:56 -0.02,-128.45 -0.99,-132.68 482.85 80
2 05/25/2019 21:58:51 -0.03,-128.45 0.05,-128.15 34.27 80
3 05/28/2019 09:59:13 0.03,-128.44 0.13,-128.89 50.55 80
4 05/29/2019 09:43:08 0.04,-128.44 -0.86,-124.35 465.92 80
5 05/30/2019 22:02:24 -0.02,-128.44 -0.30,-129.66 138.45 80
6 05/31/2019 21:46:19 -0.02,-128.44 0.69,-125.12 377.94 80
7 06/02/2019 10:05:27 0.00,-128.43 0.42,-130.40 224.57 80
8 06/03/2019 09:49:21 0.01,-128.42 -0.57,-125.87 291.03 80
9 06/04/2019 22:08:37 0.01,-128.40 -0.63,-131.16 315.46 80
10 06/05/2019 21:52:32 -0.00,-128.39 0.41,-126.64 199.99 80
11 06/07/2019 10:11:40 -0.02,-128.37 0.76,-131.91 403.33 80




NCC Satellite Simultaneous Nadir Overpasses (SNOs) Prediction Service
